Location: Saint Michaels Cemetery
(37.9420°N, 100.1024°W)
Time: 01:37:38
(UTC+00:00)

METEOR-M - Pass Details

Date: 21 September 2020
Orbit: 816 x 819 km, 98.5° (Epoch: 23 October)

Event Time Altitude Azimuth Distance (km) Brightness Sun altitude
Rises 11:59:12 0° 6° (N) 3,357 7.5 -6.5°
Reaches altitude 10° 12:01:37 10° 1° (N) 2,420 6.7 -6.0°
Maximum altitude 12:06:44 48° 289° (WNW) 1,059 4.4 -5.0°
Drops below altitude 10° 12:11:50 10° 215° (SW) 2,403 6.2 -4.0°
Sets 12:14:14 0° 210° (SSW) 3,331 7.0 -3.5°
